Terug naar catalogus

JILIN-01 KUANFU 02B 5

ActiefWetenschapSSO
NORAD 61193·PAYLOAD·🇨🇳 China

Gelanceerd Sep 20, 2024 vanaf Taiyuan Satellite Launch Center

Loading…

Volgende Passages (komende 24 uur)

TLE

VersSource: Space-Track

Epoch: Sep 14, 2026, 13:41 UTC

1 61193U 24169E   26257.57074834  .00002495  00000-0  15972-3 0  9999
2 61193  97.5554 345.8870 0012616 350.9229   9.1769 15.09424388109318

Volg JILIN-01 KUANFU 02B 5 in realtime met AllMySat

Download on the App Store